SCP
0 0 0 0 0 0 0 0 0 0 0 0 0 0 0 0 0 0 0 0 0 0 0 0 0 0 0 0 0 0 -0 0 0 0 0 0 0 0 0 0 0 0 0 0 0 0 0 0 0 0 0 0 0 0
0 0 0 0 0 0 0 0 0 0 0 0 0 0 0 0 0 0 0 0 0 0 0 0 0 0 0 -0 0 0 -0 0 -0 0 0 0 0 0 0 0 0 0 0 0 0 0 0 0 0 0 0 0 0 0
0 0 0 0 0 0 0 0 0 0 0 0 0 0 0 0 0 0 0 0 0 0 0 0 0 0 0 0 0 0 0 0 0 0 0 -0 0 0 0 0 0 0 0 0 0 0 0 0 0 0 0 0 0 0
0 0 0 0 0 0 0 0 0 0 0 0 0 0 0 0 0 0 0 0 0 0 0 0 0 0 0 0 0 0 0 0 0 0 0 0 0 0 0 0 0 0 0 0 0 0 0 0 0 0 0 0 0 0
0 0 0 0 0 0 0 0 0 0 0 0 0 0 0 0 0 0 0 0 0 0 0 0 0 0 0 0 0 0 0 0 0 0 0 0 -0 -0 -0 0 0 0 0 0 0 0 0 0 0 0 0 0 0 0
0 0 0 0 0 0 0 0 0 0 0 0 0 0 0 0 0 0 0 0 0 0 0 0 0 0 0 0 0 0 0 0 0 0 0 -0 0 -0 0 -0 -0 -0 0 0 0 0 0 0 0 0 0 0 0 0
0 0 0 0 0 0 0 0 0 0 0 0 0 0 0 0 0 0 0 0 0 0 0 0 0 0 0 0 0 0 0 0 0 0 0 0 0 -0 -0 -0 -0 0 0 0 0 0 0 0 0 0 0 0 0 0
0 0 0 0 0 0 0 0 0 0 0 0 0 0 0 0 0 0 0 0 0 0 0 0 0 0 0 0 0 0 0 0 0 0 0 0 0 0 0 -0 -0 -0 0 0 0 0 0 0 0 0 0 0 0 0
0 0 0 0 0 0 0 0 -0 0 0 0 0 0 0 0 0 0 0 0 0 0 0 0 0 0 0 0 0 0 0 0 0 0 0 0 0 0 0 -0 -0 0 0 0 0 0 0 0 0 0 0 0 0 0
0 0 0 0 0 0 0 0 0 -0 0 0 0 0 0 0 0 0 0 0 0 0 0 0 0 0 0 0 0 0 0 0 0 0 0 0 0 0 0 -0 -0 -0 0 0 0 0 0 0 0 0 0 0 0 0
0 0 0 0 0 0 0 0 0 0 -0 0 0 0 0 0 0 0 0 0 0 0 0 0 0 0 0 0 0 0 0 0 0 0 0 0 0 0 0 0 -0 -0 -0 0 0 0 0 0 0 0 0 0 0 0
0 0 0 0 0 0 0 0 0 0 0 0 0 0 0 0 0 0 0 0 0 0 0 0 0 0 0 0 0 0 0 0 0 0 0 0 0 0 0 0 -0 -0 -0 0 -0 0 0 0 0 0 0 0 0 0
0 0 0 0 0 0 0 0 0 0 0 0 0 0 0 0 0 0 0 0 0 0 0 0 0 0 0 0 0 0 0 0 0 0 0 0 -0 -0 -0 -0 -0 0 0 0 0 0 0 0 0 0 0 0 0 0
0 0 0 0 0 0 0 0 0 0 0 0 0 0 0 0 0 0 0 0 0 0 0 0 0 0 0 0 0 0 0 0 0 0 0 0 -0 -0 -0 -0 -0 0 0 0 0 -0 0 0 0 0 0 0 0 0
0 0 0 0 0 0 0 0 0 0 0 0 0 0 0 0 0 0 0 0 0 0 0 0 0 0 0 0 0 0 0 0 0 0 0 0 -0 -0 -0 -0 0 0 -0 -0 -0 0 0 0 0 0 0 0 0 0
0 0 0 0 0 0 0 0 0 0 0 0 0 0 0 0 0 0 0 0 0 0 0 0 0 0 0 0 0 0 0 0 0 0 0 0 0 0 -0 -0 -0 0 0 -0 -0 0 0 0 0 0 0 0 0 0
0 0 0 0 0 0 0 0 0 0 0 0 0 0 0 0 0 0 0 0 0 0 0 0 0 0 0 0 0 0 0 0 0 0 0 0 0 0 0 0 -0 0 0 0 0 0 0 0 0 0 0 0 0 0
0 0 0 0 0 0 0 0 0 0 0 0 0 0 0 0 0 0 0 0 0 0 0 0 0 0 0 0 0 0 0 0 0 0 0 0 0 0 0 0 -0 -0 0 0 0 0 0 0 -0 0 0 0 0 0
0 0 0 0 0 0 0 0 0 0 0 0 0 0 0 0 0 0 0 0 0 0 0 0 0 0 0 0 0 0 0 0 0 0 0 0 0 0 0 0 0 -0 -0 -0 -0 -0 -0 0 -0 -0 -0 0 0 0
0 0 0 0 0 0 0 0 0 0 0 0 0 0 0 0 0 0 0 0 0 0 0 0 0 0 0 0 0 0 0 0 0 0 0 0 0 0 0 0 0 0 0 -0 -0 -0 -0 -0 -0 -0 -0 -0 0 0
0 0 0 0 0 0 0 0 0 0 0 0 0 0 0 0 0 0 0 0 0 0 0 0 0 0 0 0 -0 0 0 0 0 0 0 0 0 0 0 0 0 0 0 0 0 0 -0 -0 -0 -0 -0 -0 -0 0
0 0 0 0 0 0 0 0 0 0 0 0 0 0 0 0 0 0 0 0 0 0 0 0 0 0 0 0 0 0 0 0 0 0 0 0 0 0 0 0 0 0 0 0 0 0 0 0 0 -0 -0 -0 -0 -0
0 0 0 0 0 0 0 0 0 0 0 0 0 0 0 0 0 0 0 0 0 0 0 0 0 0 0 0 0 0 0 0 0 0 0 0 0 0 0 0 0 0 0 0 0 0 0 0 0 0 0 -0 -0 -0
0 0 0 0 0 0 0 0 0 0 0 0 0 0 0 0 0 0 0 0 0 0 0 0 0 0 0 0 0 0 0 0 0 0 0 0 0 0 0 0 0 0 0 0 0 0 0 0 0 0 0 0 -0 -0
0 0 0 0 0 0 0 0 0 0 0 0 0 0 0 0 0 0 0 0 0 0 0 0 0 0 0 0 0 0 0 0 0 0 0 0 0 0 0 0 0 0 0 0 0 0 0 0 0 0 0 0 0 0
0 0 0 0 0 0 0 0 0 0 0 0 0 0 0 0 0 0 0 0 0 0 0 0 0 0 0 0 0 0 0 0 0 0 0 0 0 0 0 0 0 0 0 0 0 0 0 0 0 0 0 0 0 0
0 0 0 0 0 0 0 0 0 0 0 0 0 0 0 0 0 0 0 0 0 0 0 0 0 0 0 0 0 0 0 0 0 0 0 0 0 0 0 0 0 0 0 0 0 0 0 0 0 0 0 0 0 0
0 0 0 0 0 0 0 0 0 0 0 0 0 0 0 0 0 0 0 0 0 0 0 0 0 0 0 0 0 0 0 0 0 0 0 0 0 0 0 0 0 0 0 0 0 0 0 0 0 0 0 0 0 0
0 0 0 0 0 0 0 0 0 0 0 0 0 0 0 0 0 0 0 0 0 0 0 0 0 0 0 0 0 0 0 0 0 0 0 0 0 0 0 0 0 0 0 0 0 0 0 0 0 0 0 0 0 0
0 0 0 0 0 0 0 0 0 0 0 0 0 0 0 0 0 0 0 0 0 0 0 0 0 0 0 0 0 0 0 0 0 0 0 0 0 0 0 0 0 0 0 0 0 0 0 0 0 0 0 0 0 0
0 0 0 0 0 0 0 0 0 0 0 0 0 0 0 0 0 0 0 0 0 0 0 0 0 0 0 0 0 0 0 0 0 0 0 0 0 0 0 0 0 0 0 0 0 0 0 0 0 0 0 0 0 0
0 0 0 0 0 0 0 0 0 0 0 0 0 0 0 0 0 0 0 0 0 0 0 0 0 0 0 0 0 0 0 0 0 0 0 0 0 0 0 0 0 0 0 0 0 0 0 0 0 0 0 0 0 0
0 0 0 -0 0 0 0 0 0 0 0 0 0 0 0 0 0 0 0 0 0 0 0 0 0 0 0 0 0 0 0 0 0 0 0 0 0 0 0 0 0 0 0 0 0 0 0 0 0 0 0 0 0 0
Wind_Speed_500mb
49 50 50 55 56 52 54 55 56 57 56 43 51 57 52 43 16 17 18 23 22 15 45 33 30 16 14 17 6 17 18 1 10 8 8 11 7 8 9 8 8 17 12 9 7 8 10 36 6 9 14 15 19 22
51 51 52 54 56 54 53 58 57 57 56 43 52 59 53 45 23 16 22 24 21 33 34 46 37 39 41 34 34 8 12 13 8 5 5 7 6 6 13 1 12 7 3 3 4 7 6 16 24 20 19 20 23 28
51 52 53 53 55 57 54 57 58 58 57 51 50 61 57 43 28 21 16 25 23 26 33 12 11 18 22 13 22 7 7 5 9 7 5 5 5 6 7 5 7 12 22 5 10 14 15 14 15 23 29 25 30 30
53 56 55 51 55 58 58 55 59 61 63 55 47 60 58 39 24 21 18 13 12 13 8 8 14 30 21 19 13 23 31 13 22 16 8 6 7 7 5 5 6 7 12 11 9 12 13 11 19 32 37 33 34 33
56 58 60 52 54 58 56 56 62 66 67 55 55 59 48 34 22 19 21 15 17 8 11 21 25 7 17 13 10 15 18 21 11 9 5 5 9 9 7 7 4 3 6 7 5 28 15 25 38 40 45 38 40 41
60 57 55 53 54 56 55 58 62 67 69 59 59 54 39 35 14 7 4 1 8 17 7 7 11 8 12 7 4 4 13 15 9 7 12 10 8 13 8 6 7 17 21 19 19 41 42 41 43 41 25 42 41 43
60 57 51 53 54 55 56 59 63 67 69 62 59 49 34 17 5 7 3 5 10 7 4 10 7 5 9 2 2 2 8 5 8 10 7 13 10 19 5 7 36 42 42 38 41 47 51 40 27 42 42 44 43 40
55 57 61 60 57 56 55 56 61 64 62 63 55 43 15 1 8 2 8 10 6 3 5 6 8 8 8 6 2 3 4 7 6 8 7 8 17 11 5 32 47 45 42 40 34 33 44 50 51 52 44 38 42 36
59 62 62 54 55 52 50 51 58 61 61 59 46 18 1 3 3 12 16 8 13 6 5 4 5 7 13 5 5 5 3 3 2 3 3 5 4 4 12 37 46 49 36 46 46 42 43 47 47 47 44 37 36 33
51 49 50 49 49 43 45 49 53 56 60 48 20 6 6 4 9 9 2 5 7 8 9 7 4 6 9 7 4 7 4 4 4 3 2 4 3 8 26 34 41 49 54 45 36 27 31 41 41 40 39 33 33 35
48 46 49 48 51 41 41 44 46 53 54 35 17 7 13 20 11 7 8 9 11 8 12 12 12 9 4 4 4 2 5 5 5 6 4 0 5 24 40 43 44 46 49 50 46 42 38 37 40 36 38 35 32 32
47 45 51 54 44 34 39 36 36 44 40 41 31 31 14 3 9 8 7 6 9 4 13 7 5 7 2 3 4 3 4 4 3 7 4 6 11 38 43 44 51 52 49 52 45 54 43 38 34 33 31 32 30 29
46 41 42 42 34 30 32 23 32 42 52 26 6 6 6 6 6 10 11 6 6 10 7 5 6 2 5 5 6 4 3 3 5 3 3 5 23 35 42 45 49 53 56 56 56 55 45 38 24 18 20 22 23 23
45 42 37 42 36 28 15 28 37 40 27 7 5 9 9 9 10 9 9 6 4 8 8 11 5 7 7 6 3 5 1 1 4 4 4 10 28 34 35 41 46 48 49 51 55 58 45 39 23 11 9 12 15 17
45 41 34 32 23 16 26 37 35 36 11 10 9 10 13 20 12 10 13 11 12 9 9 6 3 7 6 6 4 4 5 4 4 4 4 18 23 25 35 38 44 48 47 48 54 58 52 43 32 25 14 11 11 15
47 43 20 27 35 38 31 36 36 19 11 12 16 12 17 13 19 18 23 24 14 11 5 7 4 5 7 4 6 7 4 7 5 5 14 17 20 19 26 33 39 43 45 40 42 51 53 47 37 30 27 26 25 22
39 13 31 38 41 40 30 35 11 13 13 12 16 28 35 25 22 23 14 19 17 17 10 5 7 4 5 6 4 7 8 6 11 14 13 14 19 14 18 26 36 40 41 41 43 42 49 55 48 43 38 37 32 26
30 32 40 39 36 44 34 8 10 12 16 26 16 24 27 27 27 25 20 19 21 21 15 12 8 12 8 6 6 8 18 16 14 15 14 17 16 8 11 18 27 33 39 41 37 38 44 47 52 58 47 36 33 34
40 38 35 31 29 27 10 9 11 11 21 24 29 33 28 30 30 30 28 24 25 22 14 11 13 13 16 14 14 14 8 15 13 11 13 11 7 7 9 13 21 27 30 36 37 38 37 38 39 43 47 46 39 39
38 30 19 21 19 8 10 11 11 14 12 10 18 23 26 26 23 22 24 25 26 20 18 12 22 34 30 29 21 17 14 13 12 13 12 3 4 8 8 13 21 24 25 27 29 34 35 38 39 41 41 44 42 41
37 15 26 22 19 17 13 10 14 14 16 15 19 17 20 17 24 26 26 24 28 17 20 40 41 43 37 37 30 20 21 19 14 12 6 5 6 10 10 13 18 21 23 23 25 28 31 34 36 36 37 39 43 48
26 20 26 22 11 12 17 21 16 11 12 23 29 30 26 23 34 34 21 23 17 38 41 39 38 34 32 32 31 30 25 24 16 11 12 4 4 9 13 13 15 19 21 21 22 22 22 25 31 26 35 36 36 38
19 22 25 14 15 13 16 17 15 13 10 9 8 9 9 9 8 7 10 17 19 19 21 24 25 28 30 24 22 27 31 28 19 16 14 8 3 6 8 8 10 14 18 19 21 18 18 23 23 26 26 32 36 38
22 12 10 12 24 11 11 11 13 11 14 18 11 16 14 11 7 9 11 25 25 15 18 20 25 22 20 23 27 30 35 31 22 19 14 6 4 3 4 4 6 10 15 16 15 17 17 20 24 25 29 30 37 39
8 14 14 15 14 11 12 11 21 15 21 21 25 19 6 9 7 8 12 14 5 12 13 11 11 19 23 19 22 27 34 34 27 23 16 8 4 3 3 4 6 11 13 17 21 23 23 22 20 20 27 31 31 30
15 20 20 13 10 14 14 11 12 20 26 23 10 10 5 8 9 10 5 3 8 11 13 12 11 18 24 26 24 31 35 33 27 25 19 12 9 5 5 4 6 7 11 13 15 18 19 21 21 21 20 23 28 27
15 18 23 24 16 12 11 20 30 11 9 9 7 8 7 8 8 2 6 6 10 14 16 12 10 12 15 18 23 27 34 32 30 25 23 18 13 11 9 7 8 7 6 11 13 16 17 18 18 18 21 22 24 25
28 23 32 40 28 24 18 22 14 8 9 10 6 8 8 9 4 4 3 4 12 16 20 13 8 4 6 19 24 31 34 33 32 27 22 17 15 13 12 11 7 3 1 4 7 11 15 15 15 15 17 19 22 23
28 38 36 32 47 36 34 28 25 33 36 37 21 22 20 17 15 14 13 16 21 20 17 14 9 4 7 17 23 26 29 32 33 32 30 21 20 15 14 12 7 4 3 2 7 11 11 12 14 15 16 17 20 19
40 39 45 45 37 39 55 54 49 48 46 41 38 43 43 32 22 19 19 20 19 18 18 15 14 7 8 16 17 20 20 20 19 21 25 22 17 18 15 13 11 8 6 3 2 6 11 11 13 13 13 14 15 16
38 26 26 42 37 50 48 46 50 54 52 48 47 46 44 36 15 6 13 17 17 19 18 13 7 5 11 13 17 19 14 10 15 21 15 15 17 16 14 12 9 8 6 5 4 1 2 5 6 9 10 12 15 16
37 31 20 24 30 37 31 32 36 38 33 32 44 44 40 18 12 3 11 8 1 7 10 11 14 11 10 13 17 22 20 17 18 18 17 14 11 10 8 9 9 10 10 8 4 0 2 2 5 7 7 9 11 12
35 38 39 36 31 24 32 29 15 15 26 30 26 28 23 13 8 7 11 11 4 7 9 10 17 23 21 18 15 15 15 13 11 13 16 12 10 14 14 14 14 13 10 9 7 7 6 5 6 8 9 12 14 15
Wind_Direction_500mb
329 335 335 340 342 339 342 346 346 346 347 342 340 342 346 340 315 295 289 288 265 264 290 278 271 244 259 278 268 318 314 47 299 316 341 352 336 320 295 121 181 185 197 183 226 254 191 359 31 317 22 346 349 342
323 327 332 334 337 338 336 340 346 349 348 340 341 341 339 336 314 280 292 282 287 253 275 298 289 282 269 274 258 261 301 317 313 317 348 307 304 323 309 357 162 214 302 295 328 39 23 7 62 42 10 345 350 338
318 322 324 329 330 336 334 334 339 347 347 339 332 337 334 331 311 287 274 277 297 286 306 304 346 306 321 297 227 268 253 256 256 311 292 289 322 282 324 11 297 28 3 300 287 47 351 319 26 8 0 346 340 338
311 315 319 324 325 327 332 332 335 338 345 340 335 337 331 325 305 292 278 278 250 274 289 295 312 341 348 320 288 246 232 279 303 292 269 279 272 149 311 320 337 337 330 328 294 19 358 305 291 326 332 331 336 336
311 312 315 319 321 323 327 329 330 335 339 339 335 336 330 319 304 294 293 256 231 260 309 305 315 324 354 349 304 270 238 246 283 280 290 271 336 335 261 179 76 21 353 348 330 325 319 292 303 310 318 322 329 331
306 309 312 316 316 320 321 326 327 330 336 334 333 334 329 313 290 276 250 274 221 233 298 296 312 315 342 336 36 283 247 236 249 278 265 315 343 331 311 344 83 5 338 320 300 306 298 295 299 300 306 316 320 322
307 303 309 314 315 317 319 323 325 329 333 333 331 331 330 308 210 195 263 228 302 248 249 285 285 269 345 350 192 124 161 230 247 273 310 325 329 319 286 10 344 330 322 318 311 299 291 287 302 297 303 307 312 313
303 304 306 309 310 314 313 319 324 330 334 334 329 330 336 198 149 217 223 293 283 185 247 286 288 288 359 337 350 343 205 223 238 300 322 332 313 334 351 326 314 310 305 303 292 290 287 288 289 288 292 295 303 306
298 298 301 308 307 308 311 315 321 328 335 337 328 327 238 144 172 228 297 251 189 210 270 240 287 302 330 324 287 253 218 237 272 250 235 338 311 323 279 315 339 340 321 302 298 293 282 281 283 284 284 284 289 298
302 304 309 314 316 314 316 315 318 326 336 344 346 326 225 228 309 309 152 175 201 203 229 251 283 290 322 311 279 284 244 256 236 149 189 225 253 333 349 340 335 335 338 337 324 318 295 282 282 281 279 278 282 287
301 298 300 302 309 318 314 315 320 324 342 354 336 279 269 290 282 213 209 213 173 218 209 234 261 291 318 283 318 354 308 293 269 89 299 201 337 355 352 348 347 347 346 346 343 336 313 293 277 280 276 273 275 281
306 297 294 297 307 316 314 314 315 328 333 317 295 288 298 237 206 231 208 178 220 247 174 243 344 248 244 205 264 233 272 259 288 360 262 344 6 349 351 346 342 344 342 349 347 347 335 321 293 274 271 263 269 277
307 305 302 301 312 310 310 303 314 324 331 323 304 276 242 206 237 217 199 193 222 185 194 256 300 215 169 206 246 259 251 233 320 269 295 337 347 347 350 352 351 351 350 347 348 350 347 340 321 283 266 255 267 276
312 313 305 301 311 302 286 307 317 324 332 279 260 270 229 206 232 211 198 202 165 241 278 295 288 230 184 202 234 251 305 306 240 248 240 337 332 333 347 353 357 356 354 349 350 356 354 353 354 338 281 266 276 279
316 318 317 320 320 281 302 304 308 310 276 255 213 240 231 238 245 226 226 219 217 234 251 237 211 222 184 238 203 257 230 248 252 234 278 308 322 329 339 349 351 355 359 5 4 7 7 3 7 21 23 20 324 317
319 321 332 327 323 320 317 298 300 297 237 232 232 247 238 254 251 226 231 235 219 214 215 239 230 220 206 216 208 213 222 227 218 215 273 306 316 333 344 347 348 351 357 5 11 13 11 11 7 8 21 21 11 349
321 320 309 315 316 317 314 303 277 229 232 229 243 233 251 265 274 274 255 243 197 202 243 222 235 236 122 221 220 191 219 222 230 272 302 313 314 321 346 349 347 349 354 1 10 10 11 14 17 17 14 6 10 3
311 304 305 317 326 322 316 244 230 242 245 241 247 252 235 247 264 262 248 231 210 223 227 233 246 213 222 201 198 215 232 249 259 272 288 303 313 321 345 349 350 348 351 356 359 11 18 12 14 17 27 24 11 5
308 314 323 314 305 297 281 246 221 262 247 259 259 260 261 261 257 254 255 242 230 233 225 212 236 235 232 228 253 272 240 243 264 268 280 281 289 328 333 337 350 351 351 354 360 5 12 18 18 18 14 10 13 10
306 306 308 308 303 256 261 253 224 257 264 276 262 261 252 258 265 256 247 229 213 211 217 225 234 245 244 240 250 257 260 233 241 271 277 269 293 318 320 344 347 342 349 356 1 4 10 14 19 19 19 17 18 12
305 306 327 302 314 236 260 264 242 246 274 260 275 269 265 257 257 252 248 223 214 231 240 241 250 251 249 249 259 239 233 218 221 261 256 242 325 320 321 328 337 337 342 349 354 4 8 12 9 17 17 17 16 15
277 293 300 301 251 242 251 237 239 278 262 262 275 262 269 270 265 258 241 213 241 244 251 254 253 248 245 235 234 231 228 204 204 204 202 221 298 333 332 331 336 338 341 345 345 359 9 10 7 12 17 14 13 17
279 272 264 227 237 234 257 220 235 230 246 245 243 249 228 227 236 192 226 232 256 278 273 264 251 246 243 247 224 217 200 193 191 195 187 200 248 316 326 330 338 342 340 336 337 353 7 9 14 19 9 5 7 10
251 242 233 230 210 250 234 228 213 247 244 236 246 252 256 243 210 234 244 261 278 285 279 269 258 247 225 219 217 203 191 188 183 178 179 194 269 314 332 351 351 350 352 350 6 10 20 18 22 19 19 17 13 11
276 231 220 233 232 225 230 230 225 228 237 243 250 252 241 209 235 237 244 270 7 349 325 274 241 225 224 210 206 193 182 179 184 183 181 174 165 145 86 68 49 34 25 26 28 24 16 21 18 17 10 7 4 5
236 213 204 217 219 214 216 234 226 242 237 244 243 242 214 224 234 237 201 11 340 330 327 321 294 263 245 244 209 197 192 184 186 183 174 166 158 135 121 110 107 52 46 35 25 17 13 15 7 6 3 5 359 8
235 233 215 225 243 263 263 254 262 267 260 236 240 194 209 222 238 165 150 43 19 355 339 326 309 274 250 216 197 184 178 180 181 180 170 160 153 147 144 139 129 115 52 33 21 16 14 11 10 7 4 4 9 10
230 243 235 230 230 238 262 265 270 256 237 211 237 228 211 204 244 102 87 347 342 346 350 351 12 73 153 157 162 163 161 163 169 164 160 161 163 155 150 141 153 163 16 27 46 15 7 8 9 9 2 7 12 13
234 236 247 249 247 254 242 247 252 259 272 282 279 280 276 288 297 284 300 313 323 321 312 333 328 16 124 143 154 164 171 173 176 181 186 188 183 189 178 173 180 174 195 328 347 6 18 26 24 22 14 12 12 15
237 237 240 241 246 246 249 255 264 269 272 279 283 282 280 275 285 288 292 289 290 292 306 290 315 276 206 184 165 158 162 181 202 219 225 222 207 190 173 172 174 186 202 225 321 1 23 34 25 23 24 12 8 11
242 234 226 238 251 257 262 263 258 259 261 263 262 267 265 275 266 252 263 279 296 290 283 254 234 250 194 176 173 166 155 166 192 193 160 149 160 166 171 178 182 188 197 187 186 178 44 43 29 9 17 14 0 355
237 230 225 234 245 257 264 263 260 258 255 244 244 245 250 246 214 180 342 314 271 245 204 164 146 124 126 142 161 170 176 162 163 160 158 144 135 152 161 173 172 168 175 175 183 218 59 30 26 39 28 38 30 16
230 234 241 253 258 267 262 251 260 255 245 236 245 221 210 200 102 50 35 19 74 143 137 133 141 151 155 158 157 159 165 183 212 234 241 220 190 167 154 158 159 168 173 153 144 130 111 96 89 88 86 80 74 66
Wind_Speed_850mb
49 50 50 55 56 52 54 55 56 57 56 43 51 57 52 43 16 17 18 23 22 15 45 33 30 16 14 17 6 17 18 1 10 8 8 11 7 8 9 8 8 17 12 9 7 8 10 36 6 9 14 15 19 22
51 51 52 54 56 54 53 58 57 57 56 43 52 59 53 45 23 16 22 24 21 33 34 46 37 39 41 34 34 8 12 13 8 5 5 7 6 6 13 1 12 7 3 3 4 7 6 16 24 20 19 20 23 28
51 52 53 53 55 57 54 57 58 58 57 51 50 61 57 43 28 21 16 25 23 26 33 12 11 18 22 13 22 7 7 5 9 7 5 5 5 6 7 5 7 12 22 5 10 14 15 14 15 23 29 25 30 30
53 56 55 51 55 58 58 55 59 61 63 55 47 60 58 39 24 21 18 13 12 13 8 8 14 30 21 19 13 23 31 13 22 16 8 6 7 7 5 5 6 7 12 11 9 12 13 11 19 32 37 33 34 33
56 58 60 52 54 58 56 56 62 66 67 55 55 59 48 34 22 19 21 15 17 8 11 21 25 7 17 13 10 15 18 21 11 9 5 5 9 9 7 7 4 3 6 7 5 28 15 25 38 40 45 38 40 41
60 57 55 53 54 56 55 58 62 67 69 59 59 54 39 35 14 7 4 1 8 17 7 7 11 8 12 7 4 4 13 15 9 7 12 10 8 13 8 6 7 17 21 19 19 41 42 41 43 41 25 42 41 43
60 57 51 53 54 55 56 59 63 67 69 62 59 49 34 17 5 7 3 5 10 7 4 10 7 5 9 2 2 2 8 5 8 10 7 13 10 19 5 7 36 42 42 38 41 47 51 40 27 42 42 44 43 40
55 57 61 60 57 56 55 56 61 64 62 63 55 43 15 1 8 2 8 10 6 3 5 6 8 8 8 6 2 3 4 7 6 8 7 8 17 11 5 32 47 45 42 40 34 33 44 50 51 52 44 38 42 36
59 62 62 54 55 52 50 51 58 61 61 59 46 18 1 3 3 12 16 8 13 6 5 4 5 7 13 5 5 5 3 3 2 3 3 5 4 4 12 37 46 49 36 46 46 42 43 47 47 47 44 37 36 33
51 49 50 49 49 43 45 49 53 56 60 48 20 6 6 4 9 9 2 5 7 8 9 7 4 6 9 7 4 7 4 4 4 3 2 4 3 8 26 34 41 49 54 45 36 27 31 41 41 40 39 33 33 35
48 46 49 48 51 41 41 44 46 53 54 35 17 7 13 20 11 7 8 9 11 8 12 12 12 9 4 4 4 2 5 5 5 6 4 0 5 24 40 43 44 46 49 50 46 42 38 37 40 36 38 35 32 32
47 45 51 54 44 34 39 36 36 44 40 41 31 31 14 3 9 8 7 6 9 4 13 7 5 7 2 3 4 3 4 4 3 7 4 6 11 38 43 44 51 52 49 52 45 54 43 38 34 33 31 32 30 29
46 41 42 42 34 30 32 23 32 42 52 26 6 6 6 6 6 10 11 6 6 10 7 5 6 2 5 5 6 4 3 3 5 3 3 5 23 35 42 45 49 53 56 56 56 55 45 38 24 18 20 22 23 23
45 42 37 42 36 28 15 28 37 40 27 7 5 9 9 9 10 9 9 6 4 8 8 11 5 7 7 6 3 5 1 1 4 4 4 10 28 34 35 41 46 48 49 51 55 58 45 39 23 11 9 12 15 17
45 41 34 32 23 16 26 37 35 36 11 10 9 10 13 20 12 10 13 11 12 9 9 6 3 7 6 6 4 4 5 4 4 4 4 18 23 25 35 38 44 48 47 48 54 58 52 43 32 25 14 11 11 15
47 43 20 27 35 38 31 36 36 19 11 12 16 12 17 13 19 18 23 24 14 11 5 7 4 5 7 4 6 7 4 7 5 5 14 17 20 19 26 33 39 43 45 40 42 51 53 47 37 30 27 26 25 22
39 13 31 38 41 40 30 35 11 13 13 12 16 28 35 25 22 23 14 19 17 17 10 5 7 4 5 6 4 7 8 6 11 14 13 14 19 14 18 26 36 40 41 41 43 42 49 55 48 43 38 37 32 26
30 32 40 39 36 44 34 8 10 12 16 26 16 24 27 27 27 25 20 19 21 21 15 12 8 12 8 6 6 8 18 16 14 15 14 17 16 8 11 18 27 33 39 41 37 38 44 47 52 58 47 36 33 34
40 38 35 31 29 27 10 9 11 11 21 24 29 33 28 30 30 30 28 24 25 22 14 11 13 13 16 14 14 14 8 15 13 11 13 11 7 7 9 13 21 27 30 36 37 38 37 38 39 43 47 46 39 39
38 30 19 21 19 8 10 11 11 14 12 10 18 23 26 26 23 22 24 25 26 20 18 12 22 34 30 29 21 17 14 13 12 13 12 3 4 8 8 13 21 24 25 27 29 34 35 38 39 41 41 44 42 41
37 15 26 22 19 17 13 10 14 14 16 15 19 17 20 17 24 26 26 24 28 17 20 40 41 43 37 37 30 20 21 19 14 12 6 5 6 10 10 13 18 21 23 23 25 28 31 34 36 36 37 39 43 48
26 20 26 22 11 12 17 21 16 11 12 23 29 30 26 23 34 34 21 23 17 38 41 39 38 34 32 32 31 30 25 24 16 11 12 4 4 9 13 13 15 19 21 21 22 22 22 25 31 26 35 36 36 38
19 22 25 14 15 13 16 17 15 13 10 9 8 9 9 9 8 7 10 17 19 19 21 24 25 28 30 24 22 27 31 28 19 16 14 8 3 6 8 8 10 14 18 19 21 18 18 23 23 26 26 32 36 38
22 12 10 12 24 11 11 11 13 11 14 18 11 16 14 11 7 9 11 25 25 15 18 20 25 22 20 23 27 30 35 31 22 19 14 6 4 3 4 4 6 10 15 16 15 17 17 20 24 25 29 30 37 39
8 14 14 15 14 11 12 11 21 15 21 21 25 19 6 9 7 8 12 14 5 12 13 11 11 19 23 19 22 27 34 34 27 23 16 8 4 3 3 4 6 11 13 17 21 23 23 22 20 20 27 31 31 30
15 20 20 13 10 14 14 11 12 20 26 23 10 10 5 8 9 10 5 3 8 11 13 12 11 18 24 26 24 31 35 33 27 25 19 12 9 5 5 4 6 7 11 13 15 18 19 21 21 21 20 23 28 27
15 18 23 24 16 12 11 20 30 11 9 9 7 8 7 8 8 2 6 6 10 14 16 12 10 12 15 18 23 27 34 32 30 25 23 18 13 11 9 7 8 7 6 11 13 16 17 18 18 18 21 22 24 25
28 23 32 40 28 24 18 22 14 8 9 10 6 8 8 9 4 4 3 4 12 16 20 13 8 4 6 19 24 31 34 33 32 27 22 17 15 13 12 11 7 3 1 4 7 11 15 15 15 15 17 19 22 23
28 38 36 32 47 36 34 28 25 33 36 37 21 22 20 17 15 14 13 16 21 20 17 14 9 4 7 17 23 26 29 32 33 32 30 21 20 15 14 12 7 4 3 2 7 11 11 12 14 15 16 17 20 19
40 39 45 45 37 39 55 54 49 48 46 41 38 43 43 32 22 19 19 20 19 18 18 15 14 7 8 16 17 20 20 20 19 21 25 22 17 18 15 13 11 8 6 3 2 6 11 11 13 13 13 14 15 16
38 26 26 42 37 50 48 46 50 54 52 48 47 46 44 36 15 6 13 17 17 19 18 13 7 5 11 13 17 19 14 10 15 21 15 15 17 16 14 12 9 8 6 5 4 1 2 5 6 9 10 12 15 16
37 31 20 24 30 37 31 32 36 38 33 32 44 44 40 18 12 3 11 8 1 7 10 11 14 11 10 13 17 22 20 17 18 18 17 14 11 10 8 9 9 10 10 8 4 0 2 2 5 7 7 9 11 12
35 38 39 36 31 24 32 29 15 15 26 30 26 28 23 13 8 7 11 11 4 7 9 10 17 23 21 18 15 15 15 13 11 13 16 12 10 14 14 14 14 13 10 9 7 7 6 5 6 8 9 12 14 15
Wind_Direction_850mb
329 335 335 340 342 339 342 346 346 346 347 342 340 342 346 340 315 295 289 288 265 264 290 278 271 244 259 278 268 318 314 47 299 316 341 352 336 320 295 121 181 185 197 183 226 254 191 359 31 317 22 346 349 342
323 327 332 334 337 338 336 340 346 349 348 340 341 341 339 336 314 280 292 282 287 253 275 298 289 282 269 274 258 261 301 317 313 317 348 307 304 323 309 357 162 214 302 295 328 39 23 7 62 42 10 345 350 338
318 322 324 329 330 336 334 334 339 347 347 339 332 337 334 331 311 287 274 277 297 286 306 304 346 306 321 297 227 268 253 256 256 311 292 289 322 282 324 11 297 28 3 300 287 47 351 319 26 8 0 346 340 338
311 315 319 324 325 327 332 332 335 338 345 340 335 337 331 325 305 292 278 278 250 274 289 295 312 341 348 320 288 246 232 279 303 292 269 279 272 149 311 320 337 337 330 328 294 19 358 305 291 326 332 331 336 336
311 312 315 319 321 323 327 329 330 335 339 339 335 336 330 319 304 294 293 256 231 260 309 305 315 324 354 349 304 270 238 246 283 280 290 271 336 335 261 179 76 21 353 348 330 325 319 292 303 310 318 322 329 331
306 309 312 316 316 320 321 326 327 330 336 334 333 334 329 313 290 276 250 274 221 233 298 296 312 315 342 336 36 283 247 236 249 278 265 315 343 331 311 344 83 5 338 320 300 306 298 295 299 300 306 316 320 322
307 303 309 314 315 317 319 323 325 329 333 333 331 331 330 308 210 195 263 228 302 248 249 285 285 269 345 350 192 124 161 230 247 273 310 325 329 319 286 10 344 330 322 318 311 299 291 287 302 297 303 307 312 313
303 304 306 309 310 314 313 319 324 330 334 334 329 330 336 198 149 217 223 293 283 185 247 286 288 288 359 337 350 343 205 223 238 300 322 332 313 334 351 326 314 310 305 303 292 290 287 288 289 288 292 295 303 306
298 298 301 308 307 308 311 315 321 328 335 337 328 327 238 144 172 228 297 251 189 210 270 240 287 302 330 324 287 253 218 237 272 250 235 338 311 323 279 315 339 340 321 302 298 293 282 281 283 284 284 284 289 298
302 304 309 314 316 314 316 315 318 326 336 344 346 326 225 228 309 309 152 175 201 203 229 251 283 290 322 311 279 284 244 256 236 149 189 225 253 333 349 340 335 335 338 337 324 318 295 282 282 281 279 278 282 287
301 298 300 302 309 318 314 315 320 324 342 354 336 279 269 290 282 213 209 213 173 218 209 234 261 291 318 283 318 354 308 293 269 89 299 201 337 355 352 348 347 347 346 346 343 336 313 293 277 280 276 273 275 281
306 297 294 297 307 316 314 314 315 328 333 317 295 288 298 237 206 231 208 178 220 247 174 243 344 248 244 205 264 233 272 259 288 360 262 344 6 349 351 346 342 344 342 349 347 347 335 321 293 274 271 263 269 277
307 305 302 301 312 310 310 303 314 324 331 323 304 276 242 206 237 217 199 193 222 185 194 256 300 215 169 206 246 259 251 233 320 269 295 337 347 347 350 352 351 351 350 347 348 350 347 340 321 283 266 255 267 276
312 313 305 301 311 302 286 307 317 324 332 279 260 270 229 206 232 211 198 202 165 241 278 295 288 230 184 202 234 251 305 306 240 248 240 337 332 333 347 353 357 356 354 349 350 356 354 353 354 338 281 266 276 279
316 318 317 320 320 281 302 304 308 310 276 255 213 240 231 238 245 226 226 219 217 234 251 237 211 222 184 238 203 257 230 248 252 234 278 308 322 329 339 349 351 355 359 5 4 7 7 3 7 21 23 20 324 317
319 321 332 327 323 320 317 298 300 297 237 232 232 247 238 254 251 226 231 235 219 214 215 239 230 220 206 216 208 213 222 227 218 215 273 306 316 333 344 347 348 351 357 5 11 13 11 11 7 8 21 21 11 349
321 320 309 315 316 317 314 303 277 229 232 229 243 233 251 265 274 274 255 243 197 202 243 222 235 236 122 221 220 191 219 222 230 272 302 313 314 321 346 349 347 349 354 1 10 10 11 14 17 17 14 6 10 3
311 304 305 317 326 322 316 244 230 242 245 241 247 252 235 247 264 262 248 231 210 223 227 233 246 213 222 201 198 215 232 249 259 272 288 303 313 321 345 349 350 348 351 356 359 11 18 12 14 17 27 24 11 5
308 314 323 314 305 297 281 246 221 262 247 259 259 260 261 261 257 254 255 242 230 233 225 212 236 235 232 228 253 272 240 243 264 268 280 281 289 328 333 337 350 351 351 354 360 5 12 18 18 18 14 10 13 10
306 306 308 308 303 256 261 253 224 257 264 276 262 261 252 258 265 256 247 229 213 211 217 225 234 245 244 240 250 257 260 233 241 271 277 269 293 318 320 344 347 342 349 356 1 4 10 14 19 19 19 17 18 12
305 306 327 302 314 236 260 264 242 246 274 260 275 269 265 257 257 252 248 223 214 231 240 241 250 251 249 249 259 239 233 218 221 261 256 242 325 320 321 328 337 337 342 349 354 4 8 12 9 17 17 17 16 15
277 293 300 301 251 242 251 237 239 278 262 262 275 262 269 270 265 258 241 213 241 244 251 254 253 248 245 235 234 231 228 204 204 204 202 221 298 333 332 331 336 338 341 345 345 359 9 10 7 12 17 14 13 17
279 272 264 227 237 234 257 220 235 230 246 245 243 249 228 227 236 192 226 232 256 278 273 264 251 246 243 247 224 217 200 193 191 195 187 200 248 316 326 330 338 342 340 336 337 353 7 9 14 19 9 5 7 10
251 242 233 230 210 250 234 228 213 247 244 236 246 252 256 243 210 234 244 261 278 285 279 269 258 247 225 219 217 203 191 188 183 178 179 194 269 314 332 351 351 350 352 350 6 10 20 18 22 19 19 17 13 11
276 231 220 233 232 225 230 230 225 228 237 243 250 252 241 209 235 237 244 270 7 349 325 274 241 225 224 210 206 193 182 179 184 183 181 174 165 145 86 68 49 34 25 26 28 24 16 21 18 17 10 7 4 5
236 213 204 217 219 214 216 234 226 242 237 244 243 242 214 224 234 237 201 11 340 330 327 321 294 263 245 244 209 197 192 184 186 183 174 166 158 135 121 110 107 52 46 35 25 17 13 15 7 6 3 5 359 8
235 233 215 225 243 263 263 254 262 267 260 236 240 194 209 222 238 165 150 43 19 355 339 326 309 274 250 216 197 184 178 180 181 180 170 160 153 147 144 139 129 115 52 33 21 16 14 11 10 7 4 4 9 10
230 243 235 230 230 238 262 265 270 256 237 211 237 228 211 204 244 102 87 347 342 346 350 351 12 73 153 157 162 163 161 163 169 164 160 161 163 155 150 141 153 163 16 27 46 15 7 8 9 9 2 7 12 13
234 236 247 249 247 254 242 247 252 259 272 282 279 280 276 288 297 284 300 313 323 321 312 333 328 16 124 143 154 164 171 173 176 181 186 188 183 189 178 173 180 174 195 328 347 6 18 26 24 22 14 12 12 15
237 237 240 241 246 246 249 255 264 269 272 279 283 282 280 275 285 288 292 289 290 292 306 290 315 276 206 184 165 158 162 181 202 219 225 222 207 190 173 172 174 186 202 225 321 1 23 34 25 23 24 12 8 11
242 234 226 238 251 257 262 263 258 259 261 263 262 267 265 275 266 252 263 279 296 290 283 254 234 250 194 176 173 166 155 166 192 193 160 149 160 166 171 178 182 188 197 187 186 178 44 43 29 9 17 14 0 355
237 230 225 234 245 257 264 263 260 258 255 244 244 245 250 246 214 180 342 314 271 245 204 164 146 124 126 142 161 170 176 162 163 160 158 144 135 152 161 173 172 168 175 175 183 218 59 30 26 39 28 38 30 16
230 234 241 253 258 267 262 251 260 255 245 236 245 221 210 200 102 50 35 19 74 143 137 133 141 151 155 158 157 159 165 183 212 234 241 220 190 167 154 158 159 168 173 153 144 130 111 96 89 88 86 80 74 66